Location: Central Falls
(41.8900°N, 71.3929°W)
Time: 02:24:05
(UTC+00:00)

Tiros 1 - Pass Details

Date: 11 December 2023
Orbit: 625 x 658 km, 48.4° (Epoch: 01 March)

Event Time Altitude Azimuth Distance (km) Brightness Sun altitude
Rises 11:53:33 0° 297° (WNW) 2,989 - -2.4°
Exits shadow 11:54:15 - 297° (WNW) 2,722 9.6 -2.2°
Reaches altitude 10° 11:55:55 10° 298° (WNW) 2,075 9.1 -2.0°
Maximum altitude 12:00:43 87° 28° (NNE) 663 7.3 -1.2°
Drops below altitude 10° 12:05:30 10° 118° (ESE) 2,060 12.1 -0.4°
Sets 12:07:50 0° 118° (ESE) 2,966 14.2 -0.1°
